Location: Serpentine
(32.3617°S, 115.9768°E)
Time: 10:22:26
(UTC+08:00)

X-37B - Pass Details

Date: 16 December 2021
Orbit: 334 x 337 km, 45.0° (Epoch: 11 January)

Event Time Altitude Azimuth Distance (km) Brightness Sun altitude
Exits shadow 02:58:36 17° 205° (SSW) 972 2.8 -21.5°
Maximum altitude 02:58:42 17° 202° (SSW) 971 2.9 -21.5°
Drops below altitude 10° 03:00:44 10° 158° (SSE) 1,299 4.2 -21.2°
Sets 03:03:12 0° 136° (SE) 2,143 5.9 -20.9°
